DW6356 Weather Reports


Display with metric or nautical units.
time (UTC)temp
F
wind
direction
speed
MPH
gust
MPH
rain 1hr
in
rain 24hr
in
rain mn
in
humidity
%
barometer
mb
20260506023010 52 134 0.0 0.0 0.00 0.00 0.00 87 1008.6
20260506021508 53 134 0.0 0.0 0.00 0.00 0.00 86 1008.5
20260506020003 54 134 0.0 0.0 0.00 0.00 0.00 84 1008.3
20260506014501 54 134 0.0 1.0 0.00 0.00 0.00 83 1008.2
20260506013103 55 159 0.0 2.0 0.00 0.00 0.00 82 1008.1
20260506011559 55 68 0.0 2.0 0.00 0.00 0.00 82 1008.0
20260506010106 55 120 0.0 3.0 0.00 0.00 0.00 81 1007.9
20260506004555 56 113 0.0 3.0 0.00 0.00 0.00 81 1008.0
20260506003054 56 148 0.0 3.0 0.00 0.00 0.00 81 1007.9
20260506001556 56 18 0.0 3.0 0.00 0.00 0.00 81 1007.7
20260506000049 56 30 0.0 4.0 0.00 0.00 0.00 79 1007.8
20260505234549 57 358 0.0 3.0 0.00 0.00 0.00 78 1007.7
20260505233052 57 314 0.0 4.0 0.00 0.00 0.00 79 1007.6
20260505231547 56 148 1.0 8.0 0.00 0.00 0.00 79 1007.7
20260505230049 56 335 0.0 4.0 0.00 0.00 0.00 79 1007.7
20260505224548 56 1 1.0 4.0 0.00 0.00 0.00 79 1007.9
20260505223044 57 37 1.0 5.0 0.00 0.00 0.00 78 1007.8
20260505221541 57 65 1.0 4.0 0.00 0.00 0.00 77 1007.7
20260505220043 58 127 2.0 8.0 0.00 0.00 0.00 76 1007.7
20260505214538 58 343 1.0 6.0 0.00 0.00 0.00 74 1007.6
20260505213044 58 38 1.0 8.0 0.00 0.00 0.00 73 1007.4
20260505211541 59 134 2.0 8.0 0.00 0.00 0.00 72 1007.2
20260505210034 59 209 3.0 8.0 0.00 0.00 0.00 71 1007.4
20260505204535 59 352 1.0 5.0 0.00 0.00 0.00 71 1007.3
20260505203034 59 51 1.0 8.0 0.00 0.00 0.00 69 1007.4
20260505201534 60 285 1.0 6.0 0.00 0.00 0.00 68 1007.3
20260505200030 60 134 2.0 5.0 0.00 0.00 0.00 66 1007.6
20260505194529 61 113 2.0 8.0 0.00 0.00 0.00 65 1007.8
20260505193028 62 15 1.0 5.0 0.00 0.00 0.00 64 1007.8
20260505191527 62 315 2.0 7.0 0.00 0.00 0.00 62 1007.8
20260505190036 63 278 2.0 11.0 0.00 0.00 0.00 61 1007.6
20260505184530 64 293 2.0 5.0 0.00 0.00 0.00 59 1007.5
20260505183027 64 92 2.0 7.0 0.00 0.00 0.00 59 1007.5
20260505181524 65 8 1.0 7.0 0.00 0.00 0.00 59 1007.4
20260505180034 65 135 2.0 10.0 0.00 0.00 0.00 59 1007.6
20260505174522 65 27 1.0 4.0 0.00 0.00 0.00 58 1007.7
20260505173021 65 79 2.0 7.0 0.00 0.00 0.00 57 1007.7
20260505171521 66 304 0.0 10.0 0.00 0.00 0.00 58 1007.7
20260505170020 66 331 2.0 5.0 0.00 0.00 0.00 56 1007.7
20260505164522 66 163 0.0 9.0 0.00 0.00 0.00 55 1007.8
20260505163017 67 291 1.0 8.0 0.00 0.00 0.00 54 1007.9
20260505161517 68 262 1.0 12.0 0.00 0.00 0.00 53 1008.1
20260505153018 70 60 2.0 10.0 0.00 0.00 0.00 49 1008.4
20260505151510 70 113 2.0 8.0 0.00 0.00 0.00 47 1008.5
20260505124503 77 312 3.0 9.0 0.00 0.00 0.00 38 1008.8
20260505123001 78 108 3.0 11.0 0.00 0.00 0.00 38 1008.8
20260505121600 78 360 2.0 10.0 0.00 0.00 0.00 38 1008.8
20260505120108 78 52 2.0 11.0 0.00 0.00 0.00 38 1008.9
20260505114559 77 70 3.0 13.0 0.00 0.00 0.00 39 1008.9
20260505113106 78 345 2.0 8.0 0.00 0.00 0.00 38 1009.1
20260505111556 78 120 1.0 8.0 0.00 0.00 0.00 37 1009.1
20260505101546 77 319 1.0 8.0 0.00 0.00 0.00 36 1009.4
20260505100044 76 53 1.0 8.0 0.00 0.00 0.00 38 1009.6
20260505094539 75 58 0.0 7.0 0.00 0.00 0.00 40 1009.8
20260505093037 74 44 1.0 6.0 0.00 0.00 0.00 40 1010.0
20260505091534 74 67 2.0 4.0 0.00 0.00 0.00 41 1010.1
20260505090030 72 162 3.0 6.0 0.00 0.00 0.00 45 1010.3
20260505084541 69 153 2.0 7.0 0.00 0.00 0.00 49 1010.2
20260505083039 66 78 0.0 4.0 0.00 0.00 0.00 57 1010.1
20260505081521 64 158 1.0 6.0 0.00 0.00 0.00 57 1010.2
20260505080032 64 113 1.0 5.0 0.00 0.00 0.00 55 1010.4
20260505074519 64 111 1.0 6.0 0.00 0.00 0.00 56 1010.5
20260505073032 65 277 1.0 9.0 0.00 0.00 0.00 52 1010.5
20260505071517 64 207 3.0 9.0 0.00 0.00 0.00 54 1010.3
20260505070016 65 194 2.0 9.0 0.00 0.00 0.00 53 1010.3
20260505064512 65 39 2.0 8.0 0.00 0.00 0.00 53 1010.3
20260505063008 63 82 2.0 9.0 0.00 0.00 0.00 55 1010.2
20260505061503 61 145 2.0 9.0 0.00 0.00 0.00 57 1010.3
20260505060002 60 15 1.0 6.0 0.00 0.00 0.00 58 1010.2
20260505054502 61 351 1.0 4.0 0.00 0.00 0.00 56 1010.1
20260505053001 60 136 2.0 7.0 0.00 0.00 0.00 58 1010.1
20260505051559 57 68 1.0 5.0 0.00 0.00 0.00 61 1010.1
20260505041603 56 61 0.0 5.0 0.00 0.00 0.00 61 1010.2
20260505040057 55 284 0.0 3.0 0.00 0.00 0.00 61 1010.2
20260505034553 55 104 0.0 3.0 0.00 0.00 0.00 60 1010.2
20260505033052 55 148 0.0 4.0 0.00 0.00 0.00 61 1010.1
20260505031552 56 131 0.0 3.0 0.00 0.00 0.00 60 1010.1
20260505030108 56 120 0.0 3.0 0.00 0.00 0.00 59 1010.2
20260505024550 56 58 0.0 2.0 0.00 0.00 0.00 59 1010.2